This is the latest recevied weather packets stored in our database for station/object KK7MLS-13. If no packets are shown the sender has not sent any weather packets the latest 1 day(s).
| Time | Temp. | Humidity | Pressure | Rain* | Wind** | Luminosity | Snow |
|---|---|---|---|---|---|---|---|
| 1778011819 | 16.67° C | 71% | 1017 hPa | 0 mm | 0 m/s | 122 W/m² | - |
| 1778011517 | 16.67° C | 71% | 1017 hPa | 0 mm | 0 m/s | 104 W/m² | - |
| 1778011213 | 16.11° C | 71% | 1017.1 hPa | 0 mm | 0 m/s | 97 W/m² | - |
| 1778010909 | 16.11° C | 72% | 1017 hPa | 0 mm | 0 m/s | 109 W/m² | - |
| 1778010607 | 16.11° C | 72% | 1016.9 hPa | 0 mm | 0 m/s | 113 W/m² | - |
| 1778010304 | 16.67° C | 70% | 1017 hPa | 0 mm | 0 m/s | 97 W/m² | - |
| 1778010004 | 16.67° C | 69% | 1016.9 hPa | 0 mm | 0 m/s | 93 W/m² | - |
| 1778009702 | 16.67° C | 69% | 1016.9 hPa | 0 mm | 0 m/s | 102 W/m² | - |
| 1778009399 | 16.67° C | 71% | 1017 hPa | 0 mm | 0 m/s | 118 W/m² | - |
| 1778009097 | 16.67° C | 71% | 1016.9 hPa | 0 mm | 0 m/s | 146 W/m² | - |
| 1778008794 | 16.67° C | 70% | 1017 hPa | 0 mm | 0.45 m/s, 294° | 122 W/m² | - |
| 1778008493 | 16.67° C | 70% | 1016.7 hPa | 0 mm | 0 m/s | 114 W/m² | - |
| 1778008190 | 16.67° C | 69% | 1016.9 hPa | 0 mm | 0 m/s | 154 W/m² | - |
| 1778007884 | 16.67° C | 70% | 1017 hPa | 0 mm | 0 m/s | 131 W/m² | - |
| 1778007580 | 16.67° C | 68% | 1017 hPa | 0 mm | 0 m/s | 194 W/m² | - |
| 1778007278 | 16.67° C | 68% | 1016.9 hPa | 0 mm | 0 m/s | 237 W/m² | - |
| 1778006974 | 16.67° C | 71% | 1017 hPa | 0 mm | 0 m/s | 219 W/m² | - |
| 1778006671 | 16.67° C | 71% | 1017 hPa | 0 mm | 0 m/s | 213 W/m² | - |
| 1778006367 | 16.67° C | 70% | 1017 hPa | 0 mm | 0 m/s | 212 W/m² | - |
| 1778006065 | 16.11° C | 72% | 1017.1 hPa | 0 mm | 0 m/s | 267 W/m² | - |
| 1778005761 | 15.56° C | 73% | 1017.1 hPa | 0 mm | 0 m/s | 279 W/m² | - |
| 1778005458 | 15.56° C | 72% | 1017.2 hPa | 0 mm | 0.89 m/s, 245° | 243 W/m² | - |
| 1778005154 | 15.56° C | 73% | 1017.1 hPa | 0 mm | 0 m/s | 200 W/m² | - |
| 1778004852 | 16.11° C | 73% | 1017 hPa | 0 mm | 0 m/s | 236 W/m² | - |
| 1778004549 | 16.11° C | 71% | 1016.8 hPa | 0 mm | 0.45 m/s, 261° | 209 W/m² | - |
* Rain latest hour (hover to see other rain measurements)
** Current wind speed in m/s (hover to see current wind gust speed)